Location: Unspecified
(0.0000°N, 0.0000°E)
Time: 05:08:58
(UTC+00:00)

Courier 1B Rocket - Visible Passes

Search period start: 20 December 2014 00:00
Search period end: 30 December 2014 00:00
Orbit: 920 x 1202 km, 28.2° (Epoch: 18 December)

Date Brightness Start Highest point End Pass type
(mag) Time Alt. Az. Time Alt. Az. Time Alt. Az.
20 Dec 7.7 21:38:53 10° SSW 21:39:15 11° SSW 21:39:15 11° SSW visible
21 Dec 6.9 20:38:31 10° SSW 20:41:57 19° S 20:41:57 19° S visible
22 Dec 7.0 19:38:26 10° S 19:41:56 14° SSE 19:44:41 11° SE visible
22 Dec 7.4 21:29:43 10° SW 21:31:03 16° SW 21:31:03 16° SW visible
23 Dec 7.4 18:39:35 10° S 18:40:24 10° SSE 18:41:12 10° SSE visible
23 Dec 6.3 20:29:01 10° SSW 20:33:48 30° S 20:33:48 30° S visible
24 Dec 6.6 19:28:30 10° SSW 19:33:44 22° SSE 19:36:35 17° ESE visible
24 Dec 7.1 21:20:51 10° SW 21:22:57 21° SW 21:22:57 21° SW visible
25 Dec 7.1 18:28:12 10° SSW 18:32:20 16° SSE 18:36:19 10° ESE visible
25 Dec 5.6 20:19:51 10° SW 20:25:46 47° S 20:25:46 47° S visible
26 Dec 6.1 19:19:02 10° SW 19:25:24 34° SSE 19:28:37 23° ESE visible
26 Dec 6.9 21:12:15 10° WSW 21:14:59 25° WSW 21:14:59 25° WSW visible
27 Dec 6.7 18:18:23 10° SSW 18:24:07 24° SSE 18:29:31 10° ESE visible
27 Dec 5.0 20:10:57 10° SW 20:17:52 78° S 20:17:52 78° S visible
28 Dec 5.6 19:09:52 10° SW 19:16:57 52° SSE 19:20:46 26° E visible
28 Dec 6.8 21:03:59 10° W 21:07:08 26° W 21:07:08 26° W visible
29 Dec 7.1 04:48:58 10° N 04:51:03 12° NNE 04:53:10 10° NE visible
29 Dec 5.1 20:02:21 10° WSW 20:09:30 68° NNW 20:10:04 66° N visible
